Tracking 25949 objects as of 8-Aug-2022
HD Live streaming from Space Station
objects crossing your sky now

EXPLORER 16

Track EXPLORER 16 now!
10-day predictions
EXPLORER 16 is classified as:


NORAD ID: 506
Int'l Code: 1962-070A
Perigee: 749.1 km
Apogee: 1,155.9 km
Inclination: 52.0 °
Period: 104.0 minutes
Semi major axis: 7323 km
RCS: 0.6378 m2 (medium)
Launch date: December 16, 1962
Source: United States (US)
Launch site: WALLOPS ISLAND (WLPIS)
aabbcc
Your satellite tracking list
Your tracking list is empty




NASA's NSSDC Master Catalog

Two Line Element Set (TLE):
1 00506U 62070A   22219.83517774 -.00000127  00000-0  14359-4 0  9991
2 00506  52.0034   5.9280 0277727  48.2156 314.2142 13.85234767 13387
Source of the keplerian elements: AFSPC